User: anonymous   Login
Location: Unspecified
(0.0000°N, 0.0000°E)
Time: 23:12:21
(UTC+01:00)
Language:

ISS - Orbit

View from above orbital plane
View from above orbital plane
View from above satellite
View from above satellite

Ground track
Ground track

The orbit data is extracted from the following two-line orbital elements,

1 25544U 98067A   15087.47751321  .00015215  00000-0  22624-3 0  9994
2 25544 051.6455 127.2179 0007165 149.0816 357.8550 15.55346946935474
Epoch (UTC): 28 March 2015 11:27:37
Eccentricity: 0.0007165
inclination: 51.6455°
perigee height: 396 km
apogee height: 406 km
right ascension of ascending node: 127.2179°
argument of perigee: 149.0816°
revolutions per day: 15.55346946
mean anomaly at epoch: 357.8550°
orbit number at epoch: 93547

The dashed part of the orbit path shows where the satellite is in the earth's shadow,  

DLR